Theta_e
314 313 312 312 313 314 316 316 316 315 319 337 340 339 342 339 342 345 345 346 347 347 344 345 346 348 348 348 350 350 348 346 346 340 334 330 328 324 319 318 316 315 316 315
315 315 314 313 313 315 315 316 315 314 324 331 335 340 343 338 344 346 346 345 345 342 342 340 342 345 347 345 346 348 347 346 342 340 336 332 326 322 319 318 315 313 313 312
316 317 317 317 317 317 316 317 316 318 322 325 338 340 345 342 344 344 344 344 344 345 343 338 336 338 339 339 341 344 343 343 340 341 335 329 325 322 319 318 316 315 315 315
316 317 318 318 317 315 317 316 317 322 323 323 328 341 325 342 345 344 343 342 343 344 340 336 334 335 336 335 336 339 339 338 336 339 336 331 324 323 320 319 317 316 318 318
318 318 318 320 318 317 317 316 318 321 320 321 321 319 318 329 338 343 342 343 343 341 338 335 333 334 334 334 331 332 333 333 333 336 334 327 322 322 320 319 318 319 319 319
317 318 319 319 320 318 319 319 316 315 315 319 318 318 317 317 328 339 338 342 343 340 336 332 333 333 331 330 330 328 330 328 331 331 327 324 321 323 320 319 320 320 320 320
318 319 319 320 321 319 316 316 318 319 317 321 317 318 318 321 323 321 331 340 343 340 335 332 329 328 329 327 327 326 325 324 324 323 321 321 321 322 322 320 320 320 320 320
317 320 321 322 321 320 319 316 317 320 318 317 317 321 322 327 325 334 323 334 341 338 333 332 329 328 327 326 325 325 323 323 323 322 321 320 320 320 322 321 320 320 320 321
318 319 320 321 321 319 320 319 315 317 317 320 319 325 327 327 335 341 340 341 340 337 332 330 329 327 327 326 324 324 323 321 321 321 321 321 320 319 320 320 320 321 321 322
318 319 320 323 320 320 319 317 321 317 323 325 321 324 325 328 332 340 340 338 336 332 329 327 327 326 327 326 324 322 320 318 318 319 319 319 319 320 321 321 321 322 322 322
317 318 320 323 322 321 321 319 315 316 319 323 324 323 320 326 325 336 337 336 334 333 330 326 325 326 326 325 323 322 321 320 318 321 323 323 321 320 322 322 322 321 319 314
318 316 319 321 321 320 320 320 317 320 321 319 319 319 318 323 323 325 333 335 334 333 330 327 324 325 324 324 323 323 323 322 321 321 323 322 321 322 322 322 320 315 313 312
322 318 319 319 320 320 324 321 318 317 316 322 323 322 321 324 324 324 322 324 332 331 329 325 323 323 323 323 323 323 323 323 323 323 322 322 322 321 321 317 314 313 312 310
323 318 318 321 319 320 323 324 322 321 324 323 321 322 322 322 324 323 324 322 327 330 327 325 323 322 322 323 323 324 324 324 324 323 323 322 322 320 315 313 313 312 310 308
318 321 323 322 320 325 326 325 324 325 323 325 323 322 322 321 320 319 320 324 324 328 326 326 324 321 320 322 324 324 324 324 324 324 323 322 318 315 314 313 312 310 308 306
320 323 325 325 325 325 326 324 323 322 322 322 322 321 318 319 318 319 319 320 324 324 326 325 323 321 321 322 322 323 323 324 324 323 321 316 314 314 313 311 308 305 304 305
322 322 323 324 325 326 328 325 324 323 321 321 321 320 319 320 320 319 319 323 325 325 324 326 324 323 322 322 322 321 322 323 323 320 317 315 314 312 309 306 304 304 305 306
324 321 321 323 326 328 323 322 323 323 323 321 321 321 319 318 320 321 320 325 327 328 328 326 324 323 322 322 322 322 323 322 320 318 316 314 311 308 306 305 305 305 306 305
321 322 325 326 326 325 326 326 325 324 324 322 322 321 320 323 327 328 328 327 327 327 326 325 324 323 322 322 322 322 319 318 317 316 313 310 308 306 305 305 306 305 304 302
321 323 325 326 328 330 325 324 324 325 329 324 322 322 322 323 325 322 326 325 325 326 326 325 324 323 322 321 320 318 315 315 314 313 310 308 307 305 305 306 305 305 300 301
322 323 328 323 325 324 323 325 324 330 328 326 324 322 320 322 320 320 322 322 324 325 324 324 323 322 319 318 318 314 312 311 311 310 308 306 305 305 305 305 302 299 300 299
322 322 322 322 322 324 323 324 327 322 323 326 326 324 325 319 323 323 322 320 319 318 320 321 319 316 316 317 316 311 309 309 309 307 306 306 305 304 304 303 299 299 298 298
322 321 322 323 321 319 323 325 325 323 323 325 326 325 324 324 325 324 321 319 318 317 317 317 315 313 313 314 314 310 309 309 307 306 306 305 305 303 303 301 300 299 299 299
321 321 320 325 322 326 325 323 323 325 324 324 325 325 323 324 324 320 318 317 317 316 315 315 314 312 310 312 312 313 309 307 306 306 305 305 304 303 303 302 302 301 301 300
320 320 322 322 322 327 325 323 323 323 325 326 325 326 323 321 321 320 318 317 316 315 315 315 314 312 309 310 310 310 309 307 306 306 305 304 303 303 303 303 302 302 302 302
317 319 322 324 322 320 317 317 323 323 321 322 324 326 324 321 321 319 318 317 317 316 315 315 313 311 308 308 309 308 308 307 306 306 305 304 303 304 304 304 304 303 304 303
Wind_Speed
3 5 4 6 3 3 1 2 3 5 9 11 20 6 13 8 6 9 10 11 10 11 11 23 27 24 21 18 19 20 21 22 23 23 25 22 21 17 17 16 15 15 16 15
6 4 9 5 4 4 3 2 7 9 6 7 10 17 10 11 15 18 17 14 13 7 8 13 24 25 22 19 17 18 18 20 18 18 16 20 20 17 17 16 17 16 16 17
5 6 4 2 4 3 3 2 4 7 5 4 9 5 4 7 5 7 8 11 12 18 16 12 14 18 22 23 23 23 20 20 16 18 21 20 18 18 17 15 17 17 16 16
5 4 3 5 7 8 4 7 6 4 3 4 2 4 5 11 14 11 13 11 14 14 10 11 15 20 22 20 20 21 21 19 19 22 21 19 20 18 16 15 16 15 14 14
7 5 6 5 8 7 11 7 8 3 3 4 1 3 6 6 11 17 14 16 15 16 16 14 15 22 19 19 18 18 20 19 20 22 20 19 17 15 17 15 13 12 12 12
6 3 4 8 5 7 5 5 7 5 3 2 4 5 5 6 16 24 18 19 18 15 13 12 20 23 20 19 21 19 19 18 22 23 20 18 16 18 19 16 13 10 9 9
5 4 5 5 2 3 6 7 2 3 3 5 4 3 8 6 9 9 17 22 23 18 15 14 14 17 24 19 19 21 20 19 20 21 19 17 15 14 16 15 10 8 7 7
2 7 3 1 4 6 0 7 6 6 4 5 4 5 5 6 8 4 13 15 14 17 15 17 18 22 26 28 23 23 22 21 20 21 20 18 16 15 15 13 10 7 4 3
5 6 4 3 4 8 5 3 4 7 4 3 3 4 7 6 6 8 8 11 13 13 15 16 20 20 26 30 29 27 26 23 21 21 21 19 18 18 15 13 10 6 3 1
7 2 4 4 1 4 7 8 3 3 4 3 4 4 5 5 4 4 8 10 9 9 11 13 19 25 30 34 34 32 31 30 28 26 24 23 20 17 15 14 11 8 6 1
4 3 8 2 3 6 1 2 6 5 4 6 2 6 7 9 9 11 10 13 16 17 18 16 20 26 28 33 36 36 34 33 32 28 24 22 22 19 16 12 10 8 5 4
4 5 6 8 5 3 7 6 6 5 3 0 3 6 6 9 8 9 11 13 13 15 19 18 22 27 25 29 33 37 35 33 30 27 23 23 23 21 19 14 10 8 8 7
4 1 1 8 6 5 3 5 5 5 4 7 5 7 3 3 5 10 10 9 12 15 13 12 16 24 26 29 29 29 32 32 29 26 25 23 18 17 17 15 12 9 6 7
6 4 6 8 8 3 3 5 5 6 4 5 6 6 6 7 8 9 10 9 12 14 15 16 15 20 24 26 26 26 28 28 27 26 23 19 19 20 19 15 10 8 8 6
5 4 5 5 6 3 4 2 4 5 5 6 7 9 9 9 10 12 9 9 7 12 14 17 17 13 20 25 27 28 28 28 26 25 23 22 22 20 16 11 12 7 6 5
1 3 1 3 4 5 5 6 9 7 5 5 7 9 11 10 7 7 10 8 10 10 17 17 14 16 21 26 27 29 30 28 26 27 28 28 23 17 14 14 12 7 5 4
3 5 3 5 4 6 7 7 9 6 5 6 8 9 7 8 10 10 9 12 14 15 15 15 16 17 23 27 32 30 31 29 28 31 30 26 21 19 17 12 8 7 6 4
5 5 3 4 1 8 6 5 7 9 5 5 6 7 8 7 2 6 6 9 9 10 12 12 14 21 25 31 33 35 33 31 30 26 28 25 23 20 14 9 6 4 4 4
6 5 2 4 5 5 5 4 5 6 8 6 7 8 8 2 3 4 4 4 8 11 11 17 25 29 32 35 38 36 31 32 32 31 28 26 22 17 11 8 7 7 6 3
5 3 5 4 4 8 4 13 11 3 16 9 5 7 4 3 3 6 6 5 7 12 20 24 28 29 31 31 34 33 31 32 32 31 29 25 19 16 13 12 10 7 4 3
4 2 7 4 6 6 6 9 7 8 9 3 2 1 4 5 5 3 9 6 8 11 19 25 27 27 29 34 36 30 31 29 33 31 27 23 19 15 15 14 10 7 9 7
7 6 4 3 3 8 3 2 7 3 2 1 2 2 3 6 3 5 6 7 7 10 21 25 26 27 33 36 37 29 26 32 34 32 28 24 20 18 16 15 12 12 10 8
6 7 5 8 6 3 3 4 3 3 4 3 4 4 5 6 5 9 9 12 8 11 13 19 26 26 26 34 37 30 34 36 34 29 27 26 21 20 17 17 13 11 7 4
2 2 4 1 2 3 2 2 3 2 3 5 4 5 7 5 8 8 9 9 9 15 16 20 18 20 22 30 33 39 39 36 31 29 27 25 22 20 18 13 10 8 6 5
4 2 3 3 3 2 3 5 4 3 4 4 4 2 6 9 8 13 13 13 18 22 24 28 23 19 21 31 35 38 38 35 32 30 27 24 21 20 15 14 9 8 7 7
3 5 4 5 5 3 5 4 4 7 7 8 6 3 3 6 12 10 13 19 24 23 23 18 13 18 22 30 36 38 38 35 30 27 26 24 20 18 15 12 10 9 9 9
Wind_Direction
14 67 230 243 151 130 121 139 281 249 200 164 218 238 222 172 167 165 170 165 173 168 162 149 144 143 144 145 146 143 144 147 148 140 129 120 111 106 95 85 76 73 71 65
19 262 233 226 187 179 152 10 296 287 143 152 175 228 229 186 199 187 177 178 175 153 164 161 156 159 163 151 149 153 149 158 154 150 145 131 125 115 104 94 82 79 77 73
161 232 79 185 297 341 328 228 256 220 147 68 119 339 199 231 193 189 205 198 178 173 170 172 162 161 156 155 155 154 155 160 161 164 146 136 130 123 115 107 95 89 81 74
229 263 210 213 233 147 244 209 213 243 121 183 148 231 244 216 215 204 200 192 189 180 167 162 163 167 167 156 152 155 155 155 157 163 162 159 149 141 137 120 103 94 85 76
244 296 338 305 235 140 228 172 189 160 121 109 276 102 254 140 228 223 208 203 196 181 172 166 164 170 170 163 156 152 151 151 159 170 172 159 150 150 140 128 118 108 93 74
236 239 201 223 251 177 132 98 51 49 84 59 236 133 283 185 213 228 209 204 197 182 166 155 164 173 164 167 164 160 159 153 160 166 166 165 154 149 148 141 133 116 96 76
333 264 278 205 107 39 81 68 352 342 9 203 159 77 235 266 234 210 222 209 196 174 158 160 159 151 170 167 172 163 160 151 154 160 159 159 155 156 164 161 149 133 114 78
164 322 208 227 148 193 192 147 153 199 206 243 205 227 252 255 300 304 220 209 168 171 171 167 160 168 167 179 177 170 161 154 154 156 155 154 157 156 163 168 159 136 116 64
160 272 288 201 202 147 181 158 179 102 16 74 262 289 332 329 347 65 95 143 175 173 171 163 167 171 174 185 183 176 167 161 161 159 158 158 160 163 161 160 160 149 139 108
218 275 208 271 102 66 162 154 78 16 139 230 290 273 238 252 220 157 154 171 167 155 161 173 177 174 186 189 186 180 176 172 169 168 170 171 168 167 165 164 169 173 173 168
144 121 277 48 182 184 312 100 52 113 127 165 213 262 219 216 199 193 198 184 175 180 184 182 182 182 188 190 188 185 184 178 176 178 174 174 171 172 172 169 156 144 118 74
215 164 226 203 302 239 167 163 133 118 237 173 175 261 215 230 213 203 204 199 199 194 186 187 181 181 187 189 190 190 188 183 183 181 177 175 180 180 169 163 148 129 103 75
181 276 270 330 353 343 208 173 119 116 95 189 169 261 343 251 246 232 214 202 197 197 186 182 179 189 189 191 192 188 188 190 184 180 179 178 172 168 153 141 127 114 84 79
82 145 169 208 215 175 198 185 144 129 129 191 218 270 285 262 246 251 240 219 202 192 184 184 190 195 191 189 186 179 184 187 184 183 182 173 171 159 144 128 117 123 108 66
118 218 182 238 242 198 204 241 154 182 199 168 233 205 244 249 244 238 236 265 162 179 182 192 194 188 177 172 173 174 175 180 184 181 175 165 154 146 135 128 123 122 90 53
38 249 211 279 279 244 237 206 229 213 188 230 229 245 230 250 240 255 234 187 180 194 191 192 182 170 164 159 155 159 164 166 176 169 160 152 152 149 143 148 131 110 75 51
135 135 104 260 283 320 312 205 213 216 192 184 227 239 249 261 247 236 225 197 191 193 185 177 175 163 156 152 149 149 156 161 165 160 155 158 156 150 144 135 123 98 82 82
140 128 139 222 81 257 236 210 201 225 239 214 277 256 239 240 288 311 241 192 172 168 168 166 152 140 138 138 146 153 154 157 154 150 157 159 152 146 140 133 114 98 99 101
174 139 197 192 205 289 305 287 198 173 257 197 226 259 265 165 84 296 259 212 195 170 159 153 148 140 144 148 149 150 150 154 156 156 158 156 151 143 135 129 127 124 116 95
137 90 177 140 201 233 215 219 220 306 271 230 206 268 283 139 157 247 190 153 144 152 152 148 147 144 141 146 149 147 149 153 153 157 157 154 150 148 148 147 138 121 80 60
146 171 214 169 244 282 241 209 162 215 259 144 170 287 139 190 211 285 141 144 148 148 145 140 142 141 143 149 151 144 148 150 158 158 153 152 151 151 149 141 128 113 110 85
187 172 196 144 217 291 337 340 201 252 282 132 182 233 245 237 295 159 134 109 123 135 142 143 137 137 146 151 153 146 146 157 158 158 157 156 155 151 149 141 123 122 110 92
232 207 210 187 210 230 276 214 256 197 191 235 250 212 217 167 196 161 157 137 129 128 134 133 130 134 146 156 159 148 158 161 159 159 160 161 158 152 153 150 144 135 135 111
264 134 198 128 262 225 291 331 283 295 222 206 242 210 180 174 144 126 123 115 113 119 127 127 130 141 147 160 163 165 162 163 161 162 162 162 160 157 158 165 174 180 189 203
217 40 177 268 270 90 263 238 227 263 257 263 279 265 188 141 149 143 143 144 142 137 138 146 158 163 160 162 167 167 165 165 168 168 165 164 165 167 165 178 190 209 233 246
198 197 197 233 226 169 238 255 215 231 225 232 217 246 211 169 158 153 157 156 154 151 153 148 164 173 165 163 166 169 169 171 172 171 171 168 164 171 179 191 209 234 253 254